TimeCST,TemperatureF,Dew PointF,Humidity,Sea Level PressureIn,VisibilityMPH,Wind Direction,Wind SpeedMPH,Gust SpeedMPH,PrecipitationIn,Events,Conditions,WindDirDegrees,DateUTC
12:29 AM,44.1,44.1,100,29.91,0.2,North,3.5,-,N/A,Fog,Fog,10,2013-12-02 06:29:00
12:53 AM,43.0,43.0,100,29.88,0.2,Calm,Calm,-,N/A,Fog,Fog,0,2013-12-02 06:53:00
1:10 AM,44.1,44.1,100,29.88,1.0,Calm,Calm,-,N/A,,Clear,0,2013-12-02 07:10:00
1:20 AM,44.1,44.1,100,29.89,3.0,Calm,Calm,-,N/A,,Clear,0,2013-12-02 07:20:00
1:26 AM,42.1,42.1,100,29.88,1.8,Calm,Calm,-,N/A,,Clear,0,2013-12-02 07:26:00
1:36 AM,42.1,42.1,100,29.88,3.0,Calm,Calm,-,N/A,,Clear,0,2013-12-02 07:36:00
1:50 AM,41.0,41.0,100,29.88,1.8,SSW,4.6,-,N/A,,Clear,210,2013-12-02 07:50:00
1:53 AM,41.0,41.0,100,29.87,1.5,WSW,3.5,-,N/A,,Clear,240,2013-12-02 07:53:00
2:13 AM,43.0,42.1,97,29.87,0.5,Calm,Calm,-,N/A,Fog,Fog,0,2013-12-02 08:13:00
2:21 AM,42.1,42.1,100,29.87,0.2,Calm,Calm,-,N/A,Fog,Fog,0,2013-12-02 08:21:00
2:53 AM,39.9,39.9,100,29.85,0.5,Calm,Calm,-,N/A,Fog,Fog,0,2013-12-02 08:53:00
3:53 AM,39.0,39.0,100,29.83,0.2,Calm,Calm,-,N/A,Fog,Fog,0,2013-12-02 09:53:00
4:53 AM,39.0,39.0,100,29.82,0.2,Calm,Calm,-,N/A,Fog,Fog,0,2013-12-02 10:53:00
5:53 AM,39.0,39.0,100,29.81,0.5,Calm,Calm,-,N/A,Fog,Fog,0,2013-12-02 11:53:00
6:53 AM,39.0,39.0,100,29.81,0.2,Calm,Calm,-,N/A,Fog,Fog,0,2013-12-02 12:53:00
7:53 AM,37.9,37.9,100,29.81,0.2,WSW,4.6,-,N/A,Fog,Fog,240,2013-12-02 13:53:00
8:53 AM,39.9,39.9,100,29.81,0.2,Calm,Calm,-,N/A,Fog,Fog,0,2013-12-02 14:53:00
9:35 AM,45.0,45.0,100,29.81,1.2,Calm,Calm,-,N/A,,Mostly Cloudy,0,2013-12-02 15:35:00
9:42 AM,46.0,46.0,100,29.80,3.0,Calm,Calm,-,N/A,,Mostly Cloudy,0,2013-12-02 15:42:00
9:50 AM,46.4,46.4,100,29.80,10.0,Calm,Calm,-,N/A,,Scattered Clouds,0,2013-12-02 15:50:00
9:53 AM,48.0,48.0,100,29.80,10.0,East,3.5,-,N/A,,Partly Cloudy,80,2013-12-02 15:53:00
10:53 AM,55.0,46.0,72,29.77,10.0,SSW,5.8,-,N/A,,Clear,200,2013-12-02 16:53:00
11:53 AM,60.1,39.9,47,29.75,10.0,Calm,Calm,-,N/A,,Clear,0,2013-12-02 17:53:00
12:53 PM,64.0,39.0,40,29.71,10.0,Variable,4.6,-,N/A,,Clear,0,2013-12-02 18:53:00
1:53 PM,66.9,37.9,34,29.69,10.0,Variable,3.5,-,N/A,,Clear,0,2013-12-02 19:53:00
2:53 PM,68.0,37.0,32,29.67,-9999.0,Calm,Calm,-,N/A,,Unknown,0,2013-12-02 20:53:00
3:53 PM,70.0,33.1,26,29.65,-9999.0,WSW,5.8,-,N/A,,Unknown,250,2013-12-02 21:53:00
4:53 PM,68.0,34.0,28,29.66,10.0,Calm,Calm,-,N/A,,Clear,0,2013-12-02 22:53:00
5:53 PM,63.0,33.1,33,29.67,10.0,SSE,3.5,-,N/A,,Clear,150,2013-12-02 23:53:00
6:53 PM,55.9,37.0,49,29.68,10.0,North,3.5,-,N/A,,Clear,350,2013-12-03 00:53:00
7:53 PM,53.1,37.9,57,29.68,10.0,Calm,Calm,-,N/A,,Clear,0,2013-12-03 01:53:00
8:53 PM,48.0,39.0,71,29.66,10.0,Calm,Calm,-,N/A,,Clear,0,2013-12-03 02:53:00
9:53 PM,46.0,37.9,73,29.68,10.0,SSE,5.8,-,N/A,,Clear,150,2013-12-03 03:53:00
10:53 PM,44.1,37.9,79,29.68,10.0,SE,3.5,-,N/A,,Clear,140,2013-12-03 04:53:00
11:53 PM,43.0,37.0,80,29.65,10.0,ESE,3.5,-,N/A,,Clear,120,2013-12-03 05:53:00